Weather History for K04V - June, 2013

Change the Weather History Date:

Monday, June 10, 2013

  Actual Average (KALS) Record (KALS)
Temperature  
Mean Temperature 67 °F 58 °F  
Max Temperature 86 °F 77 °F 91 °F (2013)
Min Temperature 48 °F 39 °F 27 °F (1945)
Degree Days  
Heating Degree Days 0 7  
Month to date heating degree days 81  
Since 1 June heating degree days 81  
Since 1 July heating degree days 8507  
Cooling Degree Days 2 0  
Month to date cooling degree days 0  
Year to date cooling degree days 0  
Since 1 June cooling degree days 0  
Growing Degree Days 17 (Base 50)    
Moisture  
Dew Point 27 °F    
Average Humidity 23    
Maximum Humidity 37    
Minimum Humidity 11    
Precipitation  
Precipitation 0.00 in 0.02 in 0.71 in (1936)
Month to date precipitation 0.15  
Year to date precipitation 2.37  
Snow  
Snow 0.00 in 0.00 in T in (1992)
Month to date snowfall 0.0  
Since 1 June snowfall 0.0  
Since 1 July snowfall 27.6  
Snow Depth -    
Sea Level Pressure  
Sea Level Pressure 30.24 in    
Wind  
Wind Speed 9 mph (North)    
Max Wind Speed 18 mph    
Max Gust Speed 38 mph    
Visibility 10 miles    
Events Rain , Thunderstorm    
T = Trace of Precipitation, MM = Missing Value Source: NWS Daily Summary

Daily Weather History Graph

Daily Weather History Graph

Search for Another Location

Airport or City:

Trip Planner

Search our weather history database for the weather conditions in past years. The results will help you decide how hot, cold, wet, or windy it might be!

Date:

Astronomy

Jun. 10, 2013 Rise Set
Actual Time 5:41 AM MDT 8:27 PM MDT
Civil Twilight 5:09 AM MDT 8:58 PM MDT
Nautical Twilight 4:30 AM MDT 9:37 PM MDT
Astronomical Twilight 3:46 AM MDT 10:22 PM MDT
Moon 7:31 AM MDT (6/10) 9:57 PM MDT (6/10)
Length of Visible Light 15h 48m
Length of Day
14h 45m
Waxing Crescent, 4% of the Moon is Illuminated
Jun 10
Waxing Crescent
Jun 16
First Quarter
Jun 23
Full
Jun 29
Last Quarter
Jul 8
New

Hourly Weather History & Observations

Time (MDT) Temp. Dew Point Humidity Pressure Visibility Wind Dir Wind Speed Gust Speed Precip Events Conditions
12:15 AM 64.4 °F 23.0 °F 21% 30.24 in 10.0 mi NNW 11.5 mph - N/A   Clear
12:35 AM 62.6 °F 24.8 °F 24% 30.24 in 10.0 mi North 12.7 mph - N/A   Clear
12:55 AM 60.8 °F 24.8 °F 25% 30.24 in 10.0 mi Calm Calm - N/A   Clear
1:15 AM 59.0 °F 24.8 °F 27% 30.23 in 10.0 mi Calm Calm - N/A   Clear
1:35 AM 59.0 °F 24.8 °F 27% 30.23 in 10.0 mi NW 15.0 mph - N/A   Clear
1:54 AM 59.0 °F 26.6 °F 29% 30.22 in 10.0 mi NNW 15.0 mph - N/A   Clear
2:15 AM 59.0 °F 24.8 °F 27% 30.22 in 10.0 mi NW 15.0 mph - N/A   Clear
2:34 AM 57.2 °F 24.8 °F 29% 30.23 in 10.0 mi NNW 10.4 mph - N/A   Clear
2:54 AM 57.2 °F 24.8 °F 29% 30.24 in 10.0 mi Calm Calm - N/A   Clear
3:15 AM 55.4 °F 24.8 °F 31% 30.24 in 10.0 mi North 10.4 mph - N/A   Clear
3:34 AM 55.4 °F 24.8 °F 31% 30.24 in 10.0 mi NW 15.0 mph - N/A   Clear
3:55 AM 53.6 °F 24.8 °F 33% 30.24 in 10.0 mi NNW 12.7 mph - N/A   Clear
4:15 AM 51.8 °F 24.8 °F 35% 30.25 in 10.0 mi NNW 12.7 mph - N/A   Clear
4:35 AM 51.8 °F 24.8 °F 35% 30.25 in 10.0 mi NNW 11.5 mph - N/A   Clear
4:55 AM 51.8 °F 24.8 °F 35% 30.26 in 10.0 mi NNW 8.1 mph - N/A   Clear
5:15 AM 50.0 °F 23.0 °F 35% 30.26 in 10.0 mi East 5.8 mph - N/A   Clear
5:35 AM 48.2 °F 23.0 °F 37% 30.27 in 10.0 mi Calm Calm - N/A   Clear
5:55 AM 50.0 °F 23.0 °F 35% 30.28 in 10.0 mi North 6.9 mph - N/A   Clear
6:15 AM 50.0 °F 23.0 °F 35% 30.28 in 10.0 mi North 5.8 mph - N/A   Clear
6:35 AM 50.0 °F 23.0 °F 35% 30.29 in 10.0 mi NNW 8.1 mph - N/A   Clear
6:55 AM 53.6 °F 24.8 °F 33% 30.29 in 10.0 mi NNE 3.5 mph - N/A   Clear
7:15 AM 57.2 °F 24.8 °F 29% 30.30 in 10.0 mi North 3.5 mph - N/A   Clear
7:35 AM 59.0 °F 26.6 °F 29% 30.30 in 10.0 mi West 3.5 mph - N/A   Clear
7:55 AM 60.8 °F 28.4 °F 29% 30.31 in 10.0 mi WNW 6.9 mph - N/A   Clear
8:15 AM 62.6 °F 30.2 °F 30% 30.31 in 10.0 mi WNW 3.5 mph - N/A   Clear
8:34 AM 64.4 °F 30.2 °F 28% 30.31 in 10.0 mi WNW 4.6 mph - N/A   Clear
8:54 AM 66.2 °F 35.6 °F 32% 30.31 in 10.0 mi South 3.5 mph - N/A   Clear
9:15 AM 68.0 °F 37.4 °F 33% 30.31 in 10.0 mi SSE 8.1 mph - N/A   Clear
9:35 AM 69.8 °F 35.6 °F 28% 30.31 in 10.0 mi South 10.4 mph - N/A   Clear
9:54 AM 69.8 °F 33.8 °F 27% 30.31 in 10.0 mi South 12.7 mph - N/A   Clear
10:15 AM 71.6 °F 35.6 °F 27% 30.31 in 10.0 mi South 9.2 mph - N/A   Clear
10:35 AM 71.6 °F 35.6 °F 27% 30.31 in 10.0 mi South 8.1 mph - N/A   Clear
10:55 AM 73.4 °F 35.6 °F 25% 30.31 in 10.0 mi South 9.2 mph - N/A   Clear
11:15 AM 75.2 °F 35.6 °F 24% 30.31 in 10.0 mi SSW 5.8 mph - N/A   Clear
11:35 AM 77.0 °F 35.6 °F 22% 30.29 in 10.0 mi SSE 6.9 mph - N/A   Clear
11:55 AM 77.0 °F 33.8 °F 21% 30.29 in 10.0 mi South 8.1 mph - N/A   Clear
12:15 PM 78.8 °F 33.8 °F 20% 30.28 in 10.0 mi SSE 8.1 mph - N/A   Clear
12:35 PM 78.8 °F 32.0 °F 18% 30.27 in 10.0 mi SSE 10.4 mph - N/A   Clear
12:55 PM 78.8 °F 32.0 °F 18% 30.26 in 10.0 mi South 5.8 mph - N/A   Clear
1:15 PM 82.4 °F 24.8 °F 12% 30.24 in 10.0 mi South 10.4 mph - N/A   Clear
1:35 PM 84.2 °F 24.8 °F 11% 30.24 in 10.0 mi SE 4.6 mph - N/A   Clear
1:55 PM 82.4 °F 24.8 °F 12% 30.23 in 10.0 mi SSE 4.6 mph 10.4 mph N/A Thunderstorm Clear
2:15 PM 80.6 °F 26.6 °F 14% 30.24 in 10.0 mi NNW 13.8 mph 38.0 mph N/A   Scattered Clouds
2:35 PM 82.4 °F 26.6 °F 13% 30.23 in 10.0 mi North 6.9 mph - N/A   Mostly Cloudy
2:55 PM 80.6 °F 24.8 °F 13% 30.22 in 10.0 mi ENE 5.8 mph 18.4 mph N/A   Scattered Clouds
3:15 PM 80.6 °F 26.6 °F 14% 30.22 in 10.0 mi North 17.3 mph 26.5 mph N/A   Scattered Clouds
3:35 PM 78.8 °F 28.4 °F 16% 30.21 in 10.0 mi East 16.1 mph 33.4 mph N/A   Mostly Cloudy
3:55 PM 82.4 °F 26.6 °F 13% 30.21 in 10.0 mi East 5.8 mph 24.2 mph N/A   Scattered Clouds
4:15 PM 82.4 °F 24.8 °F 12% 30.20 in 10.0 mi ESE 10.4 mph - N/A   Clear
4:35 PM 82.4 °F 24.8 °F 12% 30.19 in 10.0 mi ESE 9.2 mph - N/A   Clear
4:55 PM 86.0 °F 24.8 °F 11% 30.19 in 10.0 mi ENE 5.8 mph - N/A   Clear
5:15 PM 86.0 °F 24.8 °F 11% 30.18 in 10.0 mi SE 8.1 mph - N/A   Clear
5:34 PM 86.0 °F 24.8 °F 11% 30.17 in 10.0 mi SSE 4.6 mph - N/A   Clear
5:55 PM 84.2 °F 24.8 °F 11% 30.16 in 10.0 mi SSE 8.1 mph - N/A   Clear
6:15 PM 84.2 °F 24.8 °F 11% 30.16 in 10.0 mi West 4.6 mph - N/A   Clear
6:35 PM 84.2 °F 24.8 °F 11% 30.15 in 10.0 mi NNW 6.9 mph - N/A   Clear
6:55 PM 84.2 °F 23.0 °F 11% 30.15 in 10.0 mi North 8.1 mph 19.6 mph N/A   Clear
7:15 PM 82.4 °F 24.8 °F 12% 30.16 in 10.0 mi North 15.0 mph - N/A   Clear
7:35 PM 78.8 °F 24.8 °F 14% 30.17 in 10.0 mi NNE 18.4 mph 25.3 mph N/A   Scattered Clouds
7:54 PM 77.0 °F 26.6 °F 16% 30.17 in 10.0 mi NNE 18.4 mph 31.1 mph N/A   Scattered Clouds
8:15 PM 77.0 °F 26.6 °F 16% 30.17 in 10.0 mi NNW 13.8 mph 38.0 mph N/A   Mostly Cloudy
8:35 PM 77.0 °F 28.4 °F 17% 30.19 in 10.0 mi ESE 9.2 mph 31.1 mph N/A Rain Light Rain
8:54 PM 75.2 °F 28.4 °F 18% 30.18 in 10.0 mi ESE 13.8 mph 36.8 mph N/A   Scattered Clouds
9:15 PM 73.4 °F 26.6 °F 18% 30.19 in 10.0 mi SE 4.6 mph - N/A   Clear
9:34 PM 69.8 °F 28.4 °F 21% 30.19 in 10.0 mi NNW 4.6 mph - N/A   Clear
9:55 PM 66.2 °F 26.6 °F 23% 30.21 in 10.0 mi NNW 9.2 mph - N/A   Clear
10:14 PM 64.4 °F 26.6 °F 24% 30.21 in 10.0 mi North 8.1 mph - N/A   Clear
10:35 PM 64.4 °F 26.6 °F 24% 30.21 in 10.0 mi NNW 10.4 mph - N/A   Clear
10:55 PM 64.4 °F 28.4 °F 26% 30.21 in 10.0 mi NNW 10.4 mph - N/A   Clear
11:15 PM 64.4 °F 26.6 °F 24% 30.21 in 10.0 mi North 5.8 mph - N/A   Clear
11:35 PM 64.4 °F 26.6 °F 24% 30.21 in 10.0 mi NNW 8.1 mph - N/A   Clear
11:55 PM 59.0 °F 26.6 °F 29% 30.21 in 10.0 mi NW 9.2 mph - N/A   Clear